Weather Roundup
Issued by NWS Corpus Christi, TX

Home | Current Version | Previous Version | Text Only | Print | Product List | Glossary On
Versions: 1 2 3 4 5 6 7 8 9 10 11 12 13 14 15 16 17 18 19 20 21 22 23 24 25 26 27 28 29 30 31 32 33 34 35 36 37 38 39 40 41 42 43 44 45 46 47 48 49 50
000
ASUS44 KCRP 200610
HRRCRP

SOUTH TEXAS REGIONAL WEATHER ROUNDUP
NATIONAL WEATHER SERVICE CORPUS CHRISTI TX
100 AM CDT WED AUG 20 2014


TXZ229>244-200700-
...CORPUS CHRISTI AREA OBSERVATIONS...

CITY           SKY/WX    TMP DP  RH WIND       PRES   REMARKS
CORPUS CHRISTI FAIR      82  77  84 SE13      29.90F HX  90
NAS CORPUS CHR FAIR      83  79  88 SE12      29.90F HX  94
ROCKPORT       FAIR      84  78  82 SE15      29.91F HX  95
KINGSVILLE NAS FAIR      83  79  88 SE12      29.90S HX  94
ALICE          FAIR      80  77  90 SE8       29.90S
FALFURRIAS     FAIR      86  69  56 SE8       29.90R HX  90
$$

...VICTORIA AREA OBSERVATIONS...

CITY           SKY/WX    TMP DP  RH WIND       PRES   REMARKS
VICTORIA       FAIR      80  76  87 SE8       29.93F
BEEVILLE       FAIR      79  75  87 SE7       29.91F
PLEASANTON     FAIR      81  72  74 SE15G21   29.91R
SAN ANTONIO    CLOUDY    81  70  69 SE13      29.93R
$$

...LAREDO AREA OBSERVATIONS...

CITY           SKY/WX    TMP DP  RH WIND       PRES   REMARKS
LAREDO         FAIR      85  68  56 SE18G25   29.89R
COTULLA        FAIR      83  71  67 SE17      29.87S
DEL RIO        FAIR      85  65  51 E9        29.83R
MCALLEN        FAIR      83  76  79 SE15      29.89S HX  91
HEBBRONVILLE   FAIR      81  69  68 SE13      29.92R
$$

...OTHER TEXAS OBSERVATIONS...

CITY           SKY/WX    TMP DP  RH WIND       PRES   REMARKS
BROWNSVILLE    FAIR      80  77  90 SE5       29.91S
HOUSTON        FAIR      76  74  93 CALM      29.94S
COL. STATION   FAIR      79  73  82 S10       29.93S
AUSTIN         MOCLDY    81  72  74 S13       29.93R
WACO           FAIR      80  70  71 SE13      29.90F
FORT WORTH     MOCLDY    81  69  67 S13       29.89S
WICHITA FALLS  CLOUDY    83  64  52 S10       29.86F
LUBBOCK        FAIR      78  64  61 S16       29.93S
EL PASO        MOCLDY    73  59  61 SW17      29.97R
$$

...MARINE OBSERVATIONS...

STATION/POSITION TIME  SKY/WX   TEMP    WIND        PRES    VSBY  WAVE   SWELL
                                AIR SEA DIR/SP/G                  HT/PER HT/PER
                 (UTC)          (F)     (DEG/KT/KT) (MB)    (MI)  (FT/S) (FT/S)
PORT ARANSAS     0600            82 85  120/  9/ 10 1013.4F
BUOY 90 E PORT A 0600            84 85  140/ 12/ 14 1014.0F         3/ 6   2/ 6
BUOY 45 SE BAFFI 0600            85 86  140/ 16/ 19 1012.2F         4/ 6   2/ 9
BUOY 200 E PT IS 0600            83 86  120/ 16/ 19 1013.8F         2/ 5
BUOY 15 E GALVES NOT AVBL
$$


USA.gov is the U.S. government's official web portal to all federal, state and local government web resources and services.